This is the latest recevied weather packets stored in our database for station/object AC2VK-1. If no packets are shown the sender has not sent any weather packets the latest 1 day(s).
| Time | Temp. | Humidity | Pressure | Rain* | Wind** | Luminosity | Snow |
|---|---|---|---|---|---|---|---|
| 1778022555 | 25° C | 44% | 1011.7 hPa | 0 mm | 1.34 m/s, 243° | - | - |
| 1778021955 | 25° C | 43% | 1011.9 hPa | 0 mm | 1.34 m/s, 170° | - | - |
| 1778021355 | 25° C | 43% | 1011.8 hPa | 0 mm | 1.79 m/s, 263° | - | - |
| 1778020756 | 25° C | 42% | 1011.9 hPa | 0 mm | 1.79 m/s, 115° | - | - |
| 1778020156 | 25° C | 42% | 1012.2 hPa | 0 mm | 2.24 m/s, 229° | - | - |
| 1778019556 | 25° C | 44% | 1012 hPa | 0 mm | 1.34 m/s, 268° | - | - |
| 1778018956 | 25° C | 44% | 1012.1 hPa | 0 mm | 1.79 m/s, 170° | - | - |
| 1778018356 | 25° C | 42% | 1012.1 hPa | 0 mm | 1.34 m/s, 182° | - | - |
| 1778017756 | 25° C | 42% | 1012.2 hPa | 0 mm | 1.34 m/s, 359° | - | - |
| 1778017156 | 25° C | 41% | 1012.3 hPa | 0 mm | 1.79 m/s, 245° | - | - |
| 1778016556 | 25° C | 40% | 1012.2 hPa | 0 mm | 1.34 m/s, 209° | - | - |
| 1778015956 | 25° C | 41% | 1012.2 hPa | 0 mm | 1.79 m/s, 210° | - | - |
| 1778015356 | 25.56° C | 43% | 1012.4 hPa | 0 mm | 1.34 m/s, 330° | - | - |
| 1778014756 | 25° C | 44% | 1012.4 hPa | 0 mm | 0.89 m/s, 268° | - | - |
| 1778014156 | 25° C | 42% | 1012.5 hPa | 0 mm | 0.89 m/s, 190° | - | - |
| 1778013556 | 25° C | 43% | 1012.8 hPa | 0 mm | 1.79 m/s, 272° | - | - |
| 1778012956 | 25° C | 42% | 1013.1 hPa | 0 mm | 1.34 m/s, 251° | - | - |
| 1778012356 | 25° C | 40% | 1013 hPa | 0 mm | 2.24 m/s, 280° | - | - |
| 1778011756 | 25° C | 43% | 1013.1 hPa | 0 mm | 1.34 m/s, 326° | - | - |
| 1778011156 | 24.44° C | 42% | 1013.3 hPa | 0 mm | 0.89 m/s, 166° | - | - |
| 1778010556 | 23.89° C | 41% | 1013.3 hPa | 0 mm | 1.34 m/s, 237° | - | - |
| 1778009956 | 23.89° C | 42% | 1013.6 hPa | 0 mm | 1.34 m/s, 228° | - | - |
| 1778009356 | 23.89° C | 44% | 1013.8 hPa | 0 mm | 1.34 m/s, 148° | - | - |
| 1778008756 | 24.44° C | 46% | 1014 hPa | 0 mm | 1.34 m/s, 194° | - | - |
| 1778008156 | 23.89° C | 46% | 1014 hPa | 0 mm | 1.79 m/s, 131° | - | - |
* Rain latest hour (hover to see other rain measurements)
** Current wind speed in m/s (hover to see current wind gust speed)